Location: Unspecified
(0.0000°N, 0.0000°E)
Time: 14:19:22
(UTC+00:00)

FENGYUN 1C DEB - Pass Details

Date: 27 February 2024
Orbit: 775 x 868 km, 98.6° (Epoch: 09 April)

Event Time Altitude Azimuth Distance (km) Brightness Sun altitude
Rises 19:11:07 0° 189° (S) 3,253 ? -14.4°
Reaches altitude 10° 19:13:43 10° 201° (SSW) 2,327 ? -15.1°
Maximum altitude 19:17:59 27° 257° (WSW) 1,466 ? -16.1°
Drops below altitude 10° 19:22:18 10° 314° (NW) 2,346 ? -17.2°
Sets 19:24:57 0° 326° (NNW) 3,286 ? -17.9°
